This is the latest recevied weather packets stored in our database for station/object KC2G. If no packets are shown the sender has not sent any weather packets the latest 10 day(s).
| Time | Temp. | Humidity | Pressure | Rain* | Wind** | Luminosity | Snow |
|---|---|---|---|---|---|---|---|
| 1777914055 | 20° C | 35% | 1009.5 hPa | 0 mm | 0.89 m/s, 227° | - | - |
| 1777913203 | 20° C | 35% | 1009.6 hPa | 0 mm | 1.34 m/s, 194° | - | - |
| 1777913155 | 20° C | 35% | 1009.6 hPa | 0 mm | 1.34 m/s, 194° | - | - |
| 1777912300 | 20° C | 35% | 1009.8 hPa | 0 mm | 1.34 m/s, 237° | - | - |
| 1777912255 | 20° C | 35% | 1009.8 hPa | 0 mm | 1.34 m/s, 237° | - | - |
| 1777911355 | 20° C | 34% | 1010 hPa | 0 mm | 1.34 m/s, 248° | - | - |
| 1777910455 | 19.44° C | 36% | 1010.3 hPa | 0 mm | 1.34 m/s, 145° | - | - |
| 1777909554 | 18.89° C | 37% | 1010.5 hPa | 0 mm | 0.89 m/s, 133° | - | - |
| 1777909515 | 18.33° C | 36% | 1010.9 hPa | 0 mm | 0.89 m/s, 213° | - | - |
| 1777908655 | 18.89° C | 37% | 1010.7 hPa | 0 mm | 0.89 m/s, 205° | - | - |
| 1777907755 | 18.33° C | 36% | 1010.9 hPa | 0 mm | 0.89 m/s, 213° | - | - |
| 1777906855 | 18.33° C | 37% | 1011.2 hPa | 0 mm | 0.89 m/s, 160° | - | - |
| 1777905954 | 17.78° C | 37% | 1011.3 hPa | 0 mm | 1.34 m/s, 167° | - | - |
| 1777905055 | 17.78° C | 37% | 1011.6 hPa | 0 mm | 0.89 m/s, 176° | - | - |
| 1777904154 | 17.22° C | 40% | 1011.8 hPa | 0 mm | 0.45 m/s, 317° | - | - |
| 1777903255 | 16.11° C | 41% | 1011.9 hPa | 0 mm | 0.45 m/s, 200° | - | - |
| 1777902355 | 15.56° C | 42% | 1012.1 hPa | 0 mm | 0.89 m/s, 190° | - | - |
| 1777901455 | 15° C | 43% | 1012.4 hPa | 0 mm | 0.89 m/s, 181° | - | - |
| 1777900555 | 14.44° C | 44% | 1012.6 hPa | 0 mm | 0.45 m/s, 239° | - | - |
| 1777899655 | 13.89° C | 46% | 1013 hPa | 0 mm | 0.45 m/s, 185° | - | - |
| 1777898754 | 12.78° C | 49% | 1013.1 hPa | 0 mm | 0.45 m/s, 108° | - | - |
| 1777898051 | 11.67° C | 50% | 1013.3 hPa | 0 mm | 0.89 m/s, 233° | - | - |
| 1777898001 | 11.67° C | 50% | 1013.5 hPa | 0 mm | 0.89 m/s, 215° | - | - |
| 1777897855 | 11.67° C | 50% | 1013.3 hPa | 0 mm | 0.89 m/s, 233° | - | - |
| 1777896955 | 11.67° C | 50% | 1013.5 hPa | 0 mm | 0.89 m/s, 215° | - | - |
* Rain latest hour (hover to see other rain measurements)
** Current wind speed in m/s (hover to see current wind gust speed)